When you browse on this site, cookies collect data to enhance your experience and personalize the content and advertising you see.
Visit our Privacy Policy to learn more. By continuing to use the site, you agree to this use of cookies and data.
  • en Suisse
  • Liste des pays
  • À 7 jours
  • Température de l'eau
  • Carte satellitaire
  • Carte météo
  • Widgets météo
  • user-avatar
    Se connecter

    Météo par heure à Goiania

    Ce jour, 21 Novembre, Mercredi

    Heure Température Précipitation Vent Pression Humidité
    00:00 +23°C° 0.4 mm 1 m/s 698 mmHg 91%
    01:00 +23°C° 0.3 mm 1 m/s 698 mmHg 92%
    02:00 +22°C° 0.3 mm 1 m/s 698 mmHg 92%
    03:00 +22°C° 0.3 mm 1 m/s 698 mmHg 93%
    04:00 +21°C° 0.7 mm 2 m/s 698 mmHg 94%
    05:00 +21°C° 0.7 mm 2 m/s 698 mmHg 94%
    06:00 +21°C° 0.7 mm 2 m/s 698 mmHg 95%
    07:00 +21°C° 0.7 mm 2 m/s 699 mmHg 94%
    08:00 +23°C° 0.7 mm 2 m/s 700 mmHg 92%
    09:00 +24°C° 0.7 mm 3 m/s 700 mmHg 91%
    10:00 +24°C° 1 mm 3 m/s 700 mmHg 91%
    11:00 +24°C° 1 mm 3 m/s 700 mmHg 90%
    12:00 +24°C° 1 mm 3 m/s 700 mmHg 90%
    13:00 +24°C° 0.6 mm 3 m/s 700 mmHg 89%
    14:00 +24°C° 0.6 mm 3 m/s 699 mmHg 89%
    15:00 +25°C° 0.6 mm 3 m/s 698 mmHg 88%
    16:00 +24°C° 0 mm 3 m/s 698 mmHg 89%
    17:00 +24°C° 0 mm 2 m/s 698 mmHg 90%
    18:00 +23°C° 0 mm 2 m/s 697 mmHg 91%
    19:00 +23°C° 0 mm 2 m/s 698 mmHg 92%
    20:00 +21°C° 0 mm 2 m/s 698 mmHg 92%
    21:00 +21°C° 0 mm 3 m/s 698 mmHg 93%
    22:00 +21°C° 0 mm 3 m/s 698 mmHg 92%
    23:00 +21°C° 0 mm 3 m/s 699 mmHg 92%

    Demain, 22 Novembre, Jeudi

    Heure Température Précipitation Vent Pression Humidité
    00:00 +21°C° 0 mm 3 m/s 699 mmHg 91%
    01:00 +21°C° 0 mm 3 m/s 698 mmHg 91%
    02:00 +21°C° 0 mm 3 m/s 698 mmHg 90%
    03:00 +21°C° 0 mm 3 m/s 698 mmHg 90%
    04:00 +21°C° 0 mm 3 m/s 698 mmHg 90%
    05:00 +21°C° 0 mm 3 m/s 698 mmHg 89%
    06:00 +21°C° 0 mm 3 m/s 698 mmHg 89%
    07:00 +21°C° 0 mm 4 m/s 699 mmHg 86%
    08:00 +22°C° 0 mm 4 m/s 700 mmHg 83%
    09:00 +23°C° 0 mm 4 m/s 700 mmHg 81%
    10:00 +26°C° 0.2 mm 4 m/s 700 mmHg 77%
    11:00 +27°C° 0.2 mm 4 m/s 700 mmHg 74%
    12:00 +28°C° 0.2 mm 4 m/s 700 mmHg 70%
    13:00 +28°C° 1 mm 4 m/s 699 mmHg 71%
    14:00 +28°C° 1 mm 4 m/s 698 mmHg 72%
    15:00 +28°C° 1 mm 3 m/s 697 mmHg 73%
    16:00 +27°C° 0.8 mm 3 m/s 697 mmHg 78%
    17:00 +26°C° 0.8 mm 2 m/s 697 mmHg 82%
    18:00 +25°C° 0.8 mm 2 m/s 697 mmHg 87%
    19:00 +24°C° 0.7 mm 2 m/s 698 mmHg 88%
    20:00 +23°C° 0.7 mm 1 m/s 698 mmHg 90%
    21:00 +23°C° 0.7 mm 1 m/s 698 mmHg 92%
    22:00 +21°C° 0.2 mm 2 m/s 698 mmHg 92%
    23:00 +21°C° 0.2 mm 2 m/s 698 mmHg 93%

    Après-demain, 23 Novembre, Vendredi

    Heure Température Précipitation Vent Pression Humidité
    00:00 +21°C° 0.2 mm 2 m/s 698 mmHg 94%
    01:00 +21°C° 0 mm 2 m/s 698 mmHg 94%
    02:00 +20°C° 0 mm 2 m/s 697 mmHg 93%
    03:00 +20°C° 0 mm 2 m/s 697 mmHg 93%
    04:00 +20°C° 0 mm 2 m/s 697 mmHg 92%
    05:00 +19°C° 0 mm 2 m/s 697 mmHg 91%
    06:00 +19°C° 0 mm 2 m/s 697 mmHg 90%
    07:00 +21°C° 0 mm 3 m/s 698 mmHg 85%
    08:00 +23°C° 0 mm 4 m/s 698 mmHg 80%
    09:00 +26°C° 0 mm 5 m/s 699 mmHg 74%
    10:00 +27°C° 0.1 mm 4 m/s 699 mmHg 71%
    11:00 +28°C° 0.1 mm 4 m/s 699 mmHg 67%
    12:00 +29°C° 0.1 mm 3 m/s 698 mmHg 63%
    13:00 +30°C° 0.4 mm 3 m/s 698 mmHg 63%
    14:00 +30°C° 0.4 mm 3 m/s 697 mmHg 63%
    15:00 +30°C° 0.4 mm 2 m/s 696 mmHg 64%
    16:00 +28°C° 1.3 mm 2 m/s 696 mmHg 70%
    17:00 +27°C° 1.3 mm 1 m/s 696 mmHg 77%
    18:00 +26°C° 1.3 mm 1 m/s 696 mmHg 84%
    19:00 +25°C° 1 mm 1 m/s 696 mmHg 86%
    20:00 +24°C° 1 mm 1 m/s 697 mmHg 87%
    21:00 +23°C° 1 mm 1 m/s 697 mmHg 89%
    22:00 +23°C° 0.4 mm 2 m/s 697 mmHg 90%
    23:00 +23°C° 0.4 mm 2 m/s 698 mmHg 91%

    24 Novembre, Samedi

    Heure Température Précipitation Vent Pression Humidité
    00:00 +21°C° 0.4 mm 2 m/s 698 mmHg 92%
    01:00 +21°C° 0.2 mm 2 m/s 697 mmHg 92%
    02:00 +21°C° 0.2 mm 2 m/s 697 mmHg 92%
    03:00 +21°C° 0.2 mm 3 m/s 696 mmHg 92%
    04:00 +21°C° 0 mm 2 m/s 697 mmHg 92%
    05:00 +21°C° 0 mm 2 m/s 697 mmHg 92%
    06:00 +21°C° 0 mm 2 m/s 697 mmHg 92%
    07:00 +22°C° 0.1 mm 3 m/s 697 mmHg 88%
    08:00 +24°C° 0.1 mm 3 m/s 698 mmHg 84%
    09:00 +26°C° 0.1 mm 3 m/s 699 mmHg 80%
    10:00 +27°C° 0.3 mm 3 m/s 698 mmHg 75%
    11:00 +28°C° 0.3 mm 4 m/s 698 mmHg 70%
    12:00 +29°C° 0.3 mm 4 m/s 698 mmHg 66%
    13:00 +29°C° 0.5 mm 4 m/s 697 mmHg 67%
    14:00 +29°C° 0.5 mm 3 m/s 696 mmHg 68%
    15:00 +29°C° 0.5 mm 3 m/s 695 mmHg 70%
    16:00 +28°C° 0.6 mm 3 m/s 695 mmHg 75%
    17:00 +27°C° 0.6 mm 2 m/s 695 mmHg 80%
    18:00 +26°C° 0.6 mm 2 m/s 695 mmHg 86%
    19:00 +25°C° 1.4 mm 2 m/s 696 mmHg 87%
    20:00 +24°C° 1.4 mm 2 m/s 696 mmHg 89%
    21:00 +24°C° 1.4 mm 2 m/s 696 mmHg 91%
    22:00 +23°C° 0.9 mm 2 m/s 697 mmHg 91%
    23:00 +23°C° 0.9 mm 2 m/s 697 mmHg 91%

    25 Novembre, Dimanche

    Heure Température Précipitation Vent Pression Humidité
    00:00 +23°C° 0.9 mm 2 m/s 697 mmHg 92%
    01:00 +23°C° 1.9 mm 2 m/s 696 mmHg 92%
    02:00 +22°C° 1.9 mm 3 m/s 696 mmHg 92%
    03:00 +22°C° 1.9 mm 3 m/s 695 mmHg 92%
    04:00 +22°C° 1.7 mm 3 m/s 696 mmHg 93%
    05:00 +22°C° 1.7 mm 3 m/s 696 mmHg 94%
    06:00 +22°C° 1.7 mm 3 m/s 696 mmHg 94%
    07:00 +22°C° 1.1 mm 3 m/s 697 mmHg 94%
    08:00 +22°C° 1.1 mm 3 m/s 697 mmHg 94%
    09:00 +22°C° 1.1 mm 3 m/s 697 mmHg 94%
    10:00 +23°C° 0.4 mm 4 m/s 697 mmHg 91%
    11:00 +25°C° 0.4 mm 4 m/s 697 mmHg 88%
    12:00 +26°C° 0.4 mm 5 m/s 697 mmHg 86%
    13:00 +26°C° 0.4 mm 5 m/s 696 mmHg 84%
    14:00 +27°C° 0.4 mm 5 m/s 695 mmHg 82%
    15:00 +27°C° 0.4 mm 5 m/s 695 mmHg 81%
    16:00 +26°C° 0.4 mm 5 m/s 695 mmHg 84%
    17:00 +26°C° 0.4 mm 4 m/s 695 mmHg 87%
    18:00 +25°C° 0.4 mm 3 m/s 694 mmHg 90%
    19:00 +24°C° 0 mm 3 m/s 695 mmHg 91%
    20:00 +24°C° 0 mm 3 m/s 695 mmHg 92%
    21:00 +22°C° 0 mm 3 m/s 695 mmHg 94%
    22:00 +22°C° 0 mm 3 m/s 695 mmHg 93%
    23:00 +22°C° 0 mm 3 m/s 695 mmHg 93%

    26 Novembre, Lundi

    Heure Température Précipitation Vent Pression Humidité
    00:00 +22°C° 0 mm 4 m/s 695 mmHg 93%
    01:00 +22°C° 0 mm 3 m/s 695 mmHg 93%
    02:00 +22°C° 0 mm 3 m/s 694 mmHg 94%
    03:00 +22°C° 0 mm 3 m/s 694 mmHg 94%
    04:00 +22°C° 0.1 mm 3 m/s 694 mmHg 94%
    05:00 +22°C° 0.1 mm 3 m/s 695 mmHg 95%
    06:00 +22°C° 0.1 mm 3 m/s 695 mmHg 95%
    07:00 +24°C° 0.1 mm 3 m/s 695 mmHg 92%
    08:00 +25°C° 0.1 mm 3 m/s 696 mmHg 88%
    09:00 +26°C° 0.1 mm 4 m/s 696 mmHg 85%
    10:00 +27°C° 0.5 mm 4 m/s 696 mmHg 83%
    11:00 +27°C° 0.5 mm 4 m/s 696 mmHg 82%
    12:00 +28°C° 0.5 mm 4 m/s 695 mmHg 80%
    13:00 +28°C° 1 mm 4 m/s 695 mmHg 80%
    14:00 +28°C° 1 mm 4 m/s 694 mmHg 81%
    15:00 +28°C° 1 mm 3 m/s 693 mmHg 81%
    16:00 +28°C° 1 mm 3 m/s 693 mmHg 84%
    17:00 +27°C° 1 mm 2 m/s 693 mmHg 87%
    18:00 +26°C° 1 mm 2 m/s 693 mmHg 90%
    19:00 +26°C° 0.8 mm 2 m/s 694 mmHg 92%
    20:00 +25°C° 0.8 mm 2 m/s 694 mmHg 94%
    21:00 +24°C° 0.8 mm 2 m/s 694 mmHg 96%
    22:00 +24°C° 1.5 mm 2 m/s 694 mmHg 96%
    23:00 +23°C° 1.5 mm 2 m/s 694 mmHg 97%
    Voir plus